Home > Weather > Ho Chi Minh > Past weeks

Flag for Vietnam Past Weather in Ho Chi Minh, Vietnam — Yesterday and Last 2 Weeks

Now
84 °F

Fog.


Feels Like: 92 °F
Forecast: 78 / 92 °F
Wind: 1 mph from North

Location: Ho Chi Minh

Current Time: Jul 23, 2016 at 6:27:12 PM

Latest Report: Jul 23, 2016 at 6:00 PM


Visibility: 3 mi

Pressure: 29.77 "Hg

Humidity: 74%

Dew Point: 75 °F

Location of Ho Chi MinhLocation

Past Weather in Ho Chi Minh — Graph

°F

Ho Chi Minh Temperature Yesterday

Maximum temperature yesterday: 90 °F (at 10:30 AM)
Minimum temperature yesterday: 75 °F (at 3:30 AM)
Average temperature yesterday: 83 °F

High & Low Weather Summary for the Past Weeks

 TemperatureHumidityPressure
High97 °F (Jul 14, 3:00 PM)100% (Jul 14, 7:00 PM)29.86 "Hg (Jul 14, 7:00 PM)
Low75 °F (Jul 18, 7:00 PM)44% (Jul 14, 3:00 PM)29.65 "Hg (Jul 13, 2:00 PM)
Average83 °F79%29.76 "Hg
* Reported Jul 8 5:00 PM — Jul 23 5:00 PM, Ho Chi Minh, Weather by CustomWeather, © 2016

Note: Actual official high and low records may vary slightly from our data, if they occured in-between our weather recording intervals... More about our weather records

Advertising

Ho Chi Minh Weather History for the Previous 24 Hours

Scroll right to see more
 ConditionsComfort  
Time TempWeatherWind HumidityBarometerVisibility
5:00 PM
Sat, Jul 23
82 °FBroken clouds.2 mph79%29.74 "HgN/A
4:30 PM82 °FBroken clouds.2 mph79%29.74 "HgN/A
4:00 PM81 °FBroken clouds.2 mph84%29.74 "HgN/A
3:30 PM79 °FBroken clouds.3 mph89%29.74 "HgN/A
3:00 PM79 °FBroken clouds.3 mph84%29.74 "HgN/A
2:30 PM79 °FThunderstorms. Broken clouds.2 mph84%29.77 "Hg4 mi
2:00 PM79 °FThunderstorms. Broken clouds.5 mph89%29.77 "Hg5 mi
1:30 PM82 °FStrong thunderstorms. Broken clouds.6 mph84%29.77 "Hg1 mi
1:00 PM84 °FSprinkles. Scattered clouds.8 mph74%29.77 "Hg3 mi
12:30 PM86 °FSprinkles. Scattered clouds.7 mph75%29.80 "Hg4 mi
12:00 PM90 °FScattered clouds.7 mph67%29.80 "HgN/A
11:30 AM88 °FScattered clouds.6 mph70%29.80 "Hg5 mi
11:00 AM86 °FScattered clouds.5 mph70%29.83 "Hg4 mi
10:30 AM90 °FPartly sunny.3 mph63%29.83 "Hg5 mi
10:00 AM88 °FPartly sunny.2 mph70%29.83 "Hg5 mi
9:30 AM86 °FPartly sunny.1 mph75%29.86 "Hg5 mi
9:00 AM86 °FPartly sunny.2 mph70%29.86 "Hg5 mi
8:30 AM84 °FPartly sunny.1 mph79%29.86 "Hg4 mi
8:00 AM84 °FFog.1 mph84%29.83 "Hg3 mi
7:00 AM81 °FFog.2 mph94%29.83 "Hg2 mi
6:30 AM79 °FFog.2 mph100%29.83 "Hg2 mi
6:00 AM79 °FFog.2 mph100%29.80 "Hg2 mi
5:30 AM79 °FClear.1 mph94%29.80 "Hg5 mi
5:00 AM79 °FClear.No wind94%29.80 "Hg5 mi
4:30 AM79 °FClear.2 mph94%29.80 "Hg5 mi
4:00 AM79 °FPassing clouds.2 mph94%29.80 "Hg5 mi
3:30 AM79 °FPassing clouds.1 mph94%29.80 "Hg5 mi
3:00 AM79 °FPassing clouds.1 mph94%29.80 "Hg5 mi
2:30 AM79 °FPassing clouds.1 mph94%29.80 "Hg5 mi
2:00 AM79 °FPassing clouds.2 mph94%29.80 "Hg5 mi
1:30 AM79 °FPassing clouds.2 mph94%29.80 "HgN/A
1:00 AM79 °FPassing clouds.2 mph94%29.80 "HgN/A
12:30 AM81 °FPassing clouds.3 mph89%29.83 "HgN/A
12:00 AM81 °FPassing clouds.1 mph89%29.83 "Hg2 mi
11:00 PM
Fri, Jul 22
82 °FPassing clouds.2 mph84%29.83 "HgN/A
10:30 PM82 °FPassing clouds.2 mph84%29.83 "HgN/A
10:00 PM82 °FPassing clouds.2 mph84%29.83 "HgN/A
9:30 PM82 °FPassing clouds.3 mph84%29.83 "HgN/A
9:00 PM82 °FPassing clouds.5 mph84%29.83 "HgN/A
8:30 PM82 °FPassing clouds.6 mph84%29.83 "HgN/A
8:00 PM84 °FPassing clouds.5 mph74%29.80 "HgN/A
7:30 PM84 °FPassing clouds.6 mph74%29.80 "HgN/A
7:00 PM84 °FPassing clouds.7 mph74%29.80 "HgN/A
6:30 PM84 °FPassing clouds.7 mph70%29.77 "HgN/A
6:00 PM84 °FLight rain. Scattered clouds.8 mph70%29.74 "HgN/A
Weather by CustomWeather, © 2016

See weather overviewHow to use our weather pages